#timestamp,LO_Frequency,Hit,StdDev 
1628193615.9,286046994.9,P
1628193635.7,286046995.7,N
1628193655.5,286046995.1,N
1628193675.4,286046996.0,N
1628193695.2,286046995.2,N
1628193715.0,286046995.2,N
1628193715.9,286046995.2,Y
1628193735.8,286047000.0,P
1628193755.6,286047000.7,N
1628193775.5,286046999.3,N
1628193795.3,286046996.9,N
1628193815.1,286046996.8,N
1628193835.9,286046998.9,N
1628193855.7,286046998.2,N
1628193875.5,286046998.3,N
1628193895.4,286046999.6,N
1628193915.2,286046996.8,N
1628193935.1,286046997.5,N
1628193936.0,286046997.5,N
1628193955.8,286046997.3,N
1628193975.6,286046999.6,N
1628193995.5,286046997.2,N
1628194015.3,286046995.8,Y
1628194035.1,286046999.6,P
1628194055.9,286046997.7,P
1628194075.7,286046997.9,N
1628194095.6,286046997.6,Y
1628194115.4,286046999.3,P
1628194135.2,286046999.4,N
1628194155.1,286046999.1,N
1628194156.0,286046999.1,N
1628194175.8,286046998.9,Y
1628194195.7,286046999.2,P
1628194215.5,286046996.5,P
1628194235.3,286046998.6,N
1628194255.2,286046998.4,N
1628194275.9,286046998.5,N
1628194295.7,286046996.6,Y
1628194315.6,286047001.0,P
1628194335.4,286047000.9,N
1628194355.3,286046998.8,N
1628194375.1,286046998.1,N
1628194395.2,286047001.0,N
1628194415.1,286046999.3,N
1628194416.0,286046999.3,N
1628194435.8,286046998.8,N
1628194455.7,286046999.0,N
1628194475.5,286046999.6,N
1628194495.3,286046998.9,N
1628194515.2,286046998.4,N
1628194535.0,286047001.2,N
1628194535.9,286047001.2,N
1628194555.8,286046999.9,N
1628194575.6,286047002.1,N
1628194595.4,286047002.8,N
1628194615.3,286047002.6,N
1628194635.1,286046999.7,N
1628194655.8,286047001.0,N
1628194675.7,286046998.8,N
1628194695.5,286046998.1,N
1628194715.3,286046998.1,N
1628194735.2,286046998.1,N
1628194755.0,286046998.6,N
1628194755.9,286046998.6,N
1628194775.8,286047000.9,N
1628194795.6,286047000.6,N
1628194815.4,286046998.6,N
1628194835.3,286046998.9,N
1628194855.1,286046999.5,N
1628194875.9,286046998.7,N
1628194895.7,286046998.4,N
1628194915.5,286046998.9,N
1628194935.4,286046998.8,N
1628194955.2,286046998.4,N
1628194975.0,286046998.5,N
1628194975.9,286046998.5,N
1628194995.8,286046999.3,N
1628195015.6,286046998.1,N
1628195035.5,286046998.1,N
1628195055.3,286046998.1,N
1628195075.1,286047000.7,N
1628195095.9,286047000.2,N
1628195115.7,286047002.3,N
1628195135.5,286047000.3,N
1628195155.4,286047001.1,N
1628195175.2,286047000.9,N
1628195195.1,286046999.8,N
1628195196.0,286046999.8,N
1628195215.8,286047002.0,N
1628195235.6,286046999.9,N
1628195255.5,286047001.0,N
1628195275.3,286047000.8,N
1628195295.2,286046998.5,N
1628195315.9,286047001.0,N
1628195335.7,286047001.1,N
1628195355.6,286047000.5,N
1628195375.4,286046999.9,N
1628195395.2,286047000.3,N
1628195415.1,286047000.6,N
1628195416.0,286047000.6,N
1628195435.8,286046998.1,N
1628195455.7,286046998.8,N
1628195475.5,286046998.4,N
1628195495.3,286047000.7,N
1628195515.2,286047000.4,N
1628195535.0,286047001.0,N
1628195535.9,286047001.0,N
1628195555.7,286046998.5,N
1628195575.6,286047000.7,N
1628195595.4,286046998.8,N
1628195615.3,286046998.4,N
1628195635.1,286046998.7,N
1628195636.0,286046998.7,N
1628195655.8,286047000.6,N
1628195675.7,286047002.8,N
1628195695.5,286047001.8,N
1628195715.4,286047001.6,N
1628195735.2,286047002.6,N
1628195755.0,286047000.4,N
1628195755.9,286047000.4,N
1628195775.8,286046998.6,N
1628195795.6,286046998.2,N
1628195815.4,286046998.3,N
1628195835.3,286046998.8,N
1628195855.1,286046996.7,N
1628195875.9,286046999.5,N
1628195895.7,286046999.0,N
1628195915.5,286046998.4,N
1628195935.4,286046999.5,N
1628195955.2,286046996.7,N
1628195975.0,286046996.7,N
1628195975.9,286046996.7,N
1628195995.8,286046996.6,N
1628196015.6,286046998.7,N
1628196035.5,286046998.2,N
1628196055.3,286046998.5,N
1628196075.1,286047000.5,N
1628196095.9,286047000.3,N
1628196115.7,286047002.0,N
1628196135.5,286047003.6,N
1628196155.4,286047005.8,Y
1628196175.2,286047007.6,P
1628196195.1,286047007.1,N
1628196196.0,286047007.1,N
1628196215.8,286047006.6,N
1628196235.6,286047006.1,N
1628196255.5,286047008.6,Y
1628196275.3,286047002.5,P
1628196295.1,286047002.2,N
1628196315.9,286047002.8,N
1628196335.7,286047002.2,N
1628196355.6,286047001.6,N
1628196375.4,286047003.7,N
1628196395.2,286047005.4,Y
1628196415.1,286047001.3,P
1628196416.0,286047001.3,N
1628196435.8,286047001.3,N
1628196455.7,286047005.9,Y
1628196475.5,286047004.0,P
1628196495.3,286047001.9,N
1628196515.2,286047001.8,N
1628196535.9,286047002.6,N
1628196555.7,286047002.0,N
1628196575.6,286047002.4,N
1628196595.4,286047004.3,Y
1628196615.3,286047001.2,P
1628196635.1,286047000.4,N
1628196636.0,286047000.4,N
1628196655.8,286046998.9,N
1628196675.7,286047000.8,N
1628196695.5,286047000.8,N
1628196715.3,286047000.8,N
1628196735.2,286047000.6,N
1628196755.0,286047000.5,N
1628196755.9,286047000.5,N
1628196775.8,286046998.1,N
1628196795.6,286047001.0,N
1628196815.4,286047000.5,N
1628196835.3,286047000.3,N
1628196855.1,286047000.3,N
1628196875.8,286047001.1,N
1628196895.7,286047002.3,N
1628196915.5,286047000.3,N
1628196935.4,286047000.3,N
1628196955.2,286047000.5,N
1628196975.0,286047001.0,N
1628196975.9,286047001.0,N
1628196995.8,286047000.8,N
1628197015.6,286046999.9,N
1628197035.4,286047002.4,N
1628197055.3,286047000.4,N
1628197075.1,286047000.9,N
1628197095.9,286047001.0,N
1628197115.7,286046998.7,N
1628197135.5,286046996.9,Y
1628197155.4,286046995.8,P
1628197175.7,286046996.1,N
1628197195.5,286046997.1,N
